Weather in Damko'l

Uzbekistan     40°18′48″N   71°48′53″E
temp.,
°C
wind,
m/s
gust,
m/s
humid.,
%
clouds,
%
prec.,
mm/h
press.,
hPa
HPBL,
m
26 february, fri
fri2623:00−6nne3334100 0.0 1037336
02:00−6ne2238100 0.0 1035301
05:00−7ne2238100 0.0 1035299
08:00−7ne2238100 0.0 1034331
11:00−4ne223271 0.0 1030807
14:00−1nne22314 0.0 1027966
17:00−1nne21316 0.0 1028724
20:00−2ne12390 0.0 103140
27 february, sat
sat2723:00−3e11410 0.0 103162
02:00−3ene114565 0.0 103074
05:00−3sse004869 0.0 103072
08:00−3nne114796 0.0 1031135
11:00−1nnw113998 0.0 1029735
14:00+1nnw2132100 0.0 1028852
17:00+1ene2334100 0.1 1031443
20:00−2ne114727 0.0 103624
28 february, sun
sun2823:00−2wnw014713 0.0 103622
02:00−2n11550 0.0 103523
05:00−3sw01560 0.0 103322
08:00−1w11460 0.0 103166
11:00+2n11380 0.0 1026522
14:00+5nne21330 0.0 1022709
17:00+5ne11330 0.0 1023517
20:00+2e12470 0.0 102622
1 march, mon
mon123:00+1ese12470 0.0 102722
02:000e11470 0.0 102722
05:000w00480 0.0 102722
08:00+3ene11411 0.0 102722
11:00+6nne21335 0.0 1023389
14:00+9nne212937 0.0 1022600
17:00+10nne112918 0.0 1022452
20:00+5ene11410 0.0 102622
2 march, tue
tue223:00+3ese01440 0.0 102822
02:00+2ene014624 0.0 102722
05:00+2nne014658 0.0 102722
08:00+4ne014699 0.0 102722
11:00+9nnw113197 0.0 1024320
14:00+11nne1127100 0.0 1021582
17:00+11nne1132100 0.0 1021110
20:00+8ene1142100 0.0 102322